Probability
0 0 0 0 0 0 0 0 0 0 0 0 0 0 0 0 0 0 0 0 0 0 0 0 0 0 0 0 0 0 0 0 0 0 0 0 0 0 0 0 0 0 0 0
0 0 0 0 0 0 0 0 0 0 0 0 0 0 0 0 0 0 0 0 0 0 0 0 0 0 0 0 0 0 0 0 0 0 0 0 0 0 0 0 0 0 0 0
0 0 0 0 0 0 0 0 0 0 0 0 0 0 0 0 0 0 0 0 0 0 0 0 0 0 0 0 0 0 0 0 0 0 0 0 0 0 0 0 0 0 0 0
0 0 0 0 0 0 0 0 0 0 0 0 0 0 0 0 0 0 0 0 0 0 0 0 0 0 0 0 0 0 0 0 0 0 0 0 0 0 0 0 0 0 0 0
0 0 0 0 0 0 0 0 0 0 0 0 0 0 0 0 0 0 0 0 0 0 0 0 0 0 0 0 0 0 0 0 0 0 0 0 0 0 0 0 0 0 0 0
0 0 0 0 0 0 0 0 0 0 0 0 0 0 0 0 0 0 0 0 0 0 0 0 0 0 0 0 0 0 0 0 0 0 0 0 0 0 0 0 0 0 0 0
0 0 0 0 0 0 0 0 0 0 0 0 0 0 0 0 0 0 0 0 0 0 0 0 0 0 0 0 0 0 0 0 0 0 0 0 0 0 0 0 0 0 0 0
0 0 0 0 0 0 0 0 0 0 0 0 0 0 0 0 0 0 0 0 0 0 0 0 0 0 0 0 0 0 0 0 0 0 0 0 0 0 0 0 0 0 0 0
0 0 0 0 0 0 0 0 0 0 0 0 0 0 0 0 0 0 0 0 0 0 0 0 0 0 0 0 0 0 0 0 0 0 0 0 0 0 0 0 0 0 0 0
0 0 0 0 0 0 0 0 0 0 0 0 0 0 0 0 0 0 0 0 0 0 0 0 0 0 0 0 0 0 0 0 0 0 0 0 0 0 0 0 0 0 0 0
0 0 0 0 0 0 0 0 0 0 0 0 0 0 0 0 0 0 0 0 0 0 0 0 0 0 0 0 0 0 0 0 0 0 0 0 0 0 0 0 0 0 0 0
0 0 0 0 0 0 0 0 0 0 0 0 0 0 0 0 0 0 0 0 0 0 0 0 0 0 0 0 0 0 0 0 0 0 0 0 0 0 0 0 0 0 0 0
0 0 0 0 0 0 0 0 0 0 0 0 0 0 0 0 0 0 0 0 0 0 0 0 0 0 0 0 0 0 0 0 0 0 0 0 0 0 0 0 0 0 0 0
0 0 0 0 0 0 0 0 0 0 0 0 0 0 0 0 0 0 0 0 0 0 0 0 0 0 0 0 0 0 0 0 0 0 0 0 0 0 0 0 0 0 0 0
0 0 0 0 0 0 0 0 0 0 0 0 0 0 0 0 0 0 0 0 0 0 0 0 0 0 0 0 0 0 0 0 0 0 0 0 0 0 0 0 0 0 0 0
0 0 0 0 0 0 0 0 0 0 0 0 0 0 0 0 0 0 0 0 0 0 0 0 0 0 0 0 0 0 0 0 0 0 0 0 0 0 0 0 0 0 0 0
0 0 0 0 0 0 0 0 0 0 0 0 0 0 0 0 0 0 0 0 0 0 0 0 0 0 0 0 0 0 0 0 0 0 0 0 0 0 0 0 0 0 0 0
0 0 0 0 0 0 0 0 0 0 0 0 0 0 0 0 0 0 0 0 0 0 0 0 0 0 0 0 0 0 0 0 0 0 0 0 0 0 0 0 0 0 0 0
0 0 0 0 0 0 0 0 0 0 0 0 0 0 0 0 0 0 0 0 0 0 0 0 0 0 0 0 0 0 0 0 0 0 0 0 0 0 0 0 0 0 0 0
0 0 0 0 0 0 0 0 0 0 0 0 0 0 0 0 0 0 0 0 0 0 0 0 0 0 0 0 0 0 0 0 0 0 0 0 0 0 0 0 0 0 0 0
0 0 0 0 0 0 0 0 0 0 0 0 0 0 0 0 0 0 0 0 0 0 0 0 0 0 0 0 0 0 0 0 0 0 0 0 0 0 0 0 0 0 0 0
0 0 0 0 0 0 0 0 0 0 0 0 0 0 0 0 0 0 0 0 0 0 0 0 0 0 0 0 0 0 0 0 0 0 0 0 0 0 0 0 0 0 0 0
0 0 0 0 0 0 0 0 0 0 0 0 0 0 0 0 0 0 0 0 0 0 0 0 0 0 0 0 0 0 0 0 0 0 0 0 0 0 0 0 0 0 0 0
0 0 0 0 0 0 0 0 0 0 0 0 0 0 0 0 0 0 0 0 0 0 0 0 0 0 0 0 0 0 0 0 0 0 0 0 0 0 0 0 0 0 0 0
0 0 0 0 0 0 0 0 0 0 0 0 0 0 0 0 0 0 0 0 0 0 0 0 0 0 0 0 0 0 0 0 0 0 0 0 0 0 0 0 0 0 0 0
0 0 0 0 0 0 0 0 0 0 0 0 0 0 0 0 0 0 0 0 0 0 0 0 0 0 0 0 0 0 0 0 0 0 0 0 0 0 0 0 0 0 0 0
0 0 0 0 0 0 0 0 0 0 0 0 0 0 0 0 0 0 0 0 0 0 0 0 0 0 0 0 0 0 0 0 0 0 0 0 0 0 0 0 0 0 0 0
Height
5560 5558 5556 5556 5555 5552 5550 5548 5546 5546 5544 5544 5541 5539 5537 5535 5534 5533 5531 5530 5528 5527 5526 5526 5525 5524 5523 5523 5522 5521 5521 5521 5521 5522 5522 5523 5524 5524 5525 5526 5528 5529 5531 5532
5553 5550 5548 5547 5546 5543 5541 5539 5537 5535 5535 5533 5531 5528 5527 5525 5523 5522 5520 5519 5517 5516 5515 5514 5513 5512 5511 5510 5509 5509 5508 5508 5508 5508 5508 5508 5509 5509 5510 5511 5512 5513 5515 5516
5544 5542 5539 5539 5539 5535 5533 5531 5529 5526 5526 5523 5521 5518 5516 5514 5513 5511 5509 5508 5506 5504 5503 5502 5500 5499 5499 5498 5497 5496 5495 5494 5494 5494 5494 5494 5494 5494 5495 5495 5496 5497 5498 5499
5534 5533 5531 5534 5529 5526 5524 5522 5519 5516 5514 5512 5510 5508 5506 5503 5502 5500 5498 5496 5494 5493 5491 5490 5488 5487 5486 5485 5484 5483 5482 5481 5480 5480 5480 5479 5479 5479 5480 5480 5480 5481 5482 5482
5525 5522 5521 5523 5520 5516 5514 5512 5509 5506 5504 5502 5499 5497 5496 5493 5490 5489 5487 5485 5483 5481 5479 5477 5476 5474 5473 5472 5471 5470 5469 5468 5467 5466 5466 5465 5465 5465 5465 5465 5465 5465 5465 5466
5516 5513 5512 5514 5510 5506 5504 5502 5500 5496 5494 5491 5489 5487 5486 5482 5479 5477 5475 5473 5471 5469 5467 5465 5463 5462 5460 5459 5458 5456 5455 5454 5453 5452 5452 5452 5451 5451 5451 5451 5451 5450 5450 5450
5507 5503 5502 5503 5499 5496 5495 5493 5489 5486 5483 5481 5478 5476 5474 5471 5468 5466 5463 5461 5459 5457 5455 5453 5451 5450 5448 5446 5445 5443 5442 5441 5440 5439 5438 5438 5437 5437 5436 5436 5436 5435 5435 5435
5498 5495 5496 5492 5489 5487 5484 5481 5478 5475 5472 5470 5467 5464 5462 5459 5456 5454 5452 5449 5447 5445 5443 5440 5439 5437 5436 5434 5432 5430 5429 5428 5427 5425 5424 5423 5423 5422 5421 5421 5420 5419 5419 5420
5489 5489 5485 5481 5478 5476 5473 5470 5467 5464 5462 5459 5456 5453 5450 5447 5445 5442 5439 5437 5435 5433 5431 5428 5426 5425 5423 5421 5419 5418 5416 5415 5414 5412 5411 5410 5409 5408 5407 5406 5405 5404 5404 5404
5478 5477 5474 5471 5467 5465 5462 5459 5456 5454 5451 5448 5445 5442 5439 5436 5433 5430 5427 5425 5423 5421 5419 5416 5414 5412 5410 5409 5407 5405 5404 5402 5401 5399 5398 5396 5395 5394 5392 5391 5390 5389 5389 5389
5468 5466 5463 5460 5457 5454 5451 5448 5446 5443 5439 5436 5433 5430 5427 5424 5421 5418 5415 5413 5410 5408 5406 5404 5402 5400 5398 5396 5394 5393 5391 5389 5388 5386 5385 5383 5382 5380 5379 5377 5375 5374 5374 5374
5458 5456 5452 5450 5447 5444 5441 5438 5435 5432 5429 5425 5422 5418 5415 5412 5408 5405 5403 5400 5398 5396 5394 5392 5390 5388 5385 5383 5382 5380 5378 5377 5375 5373 5371 5370 5368 5367 5364 5363 5361 5360 5359 5359
5447 5444 5441 5439 5436 5433 5430 5427 5423 5420 5417 5414 5410 5407 5403 5400 5397 5393 5390 5387 5385 5383 5381 5379 5377 5375 5373 5371 5369 5367 5365 5364 5362 5360 5358 5356 5354 5353 5351 5350 5348 5347 5346 5345
5436 5434 5431 5428 5425 5422 5419 5416 5413 5409 5406 5403 5399 5395 5391 5388 5384 5381 5378 5375 5373 5371 5369 5367 5365 5362 5360 5358 5356 5354 5352 5350 5348 5346 5344 5343 5341 5339 5337 5336 5335 5334 5333 5332
5426 5423 5421 5418 5415 5412 5408 5405 5402 5398 5395 5391 5387 5383 5380 5376 5372 5369 5366 5363 5361 5358 5356 5354 5352 5350 5348 5346 5344 5342 5340 5338 5336 5334 5332 5330 5328 5326 5324 5323 5322 5321 5320 5319
5416 5413 5410 5408 5405 5401 5398 5394 5391 5387 5384 5380 5376 5372 5368 5364 5360 5357 5354 5351 5348 5346 5344 5342 5340 5338 5335 5334 5332 5330 5328 5326 5324 5322 5320 5318 5316 5314 5312 5310 5309 5308 5307 5306
5406 5403 5400 5397 5394 5391 5387 5384 5380 5376 5372 5369 5365 5361 5357 5353 5349 5346 5342 5339 5336 5334 5332 5330 5328 5325 5324 5322 5320 5319 5317 5315 5313 5311 5309 5306 5304 5302 5300 5299 5297 5296 5294 5293
5396 5393 5389 5386 5383 5380 5377 5373 5369 5365 5362 5358 5354 5349 5346 5342 5338 5335 5331 5328 5325 5322 5320 5318 5316 5314 5312 5311 5309 5308 5306 5304 5302 5300 5298 5296 5294 5291 5289 5287 5286 5284 5283 5282
5386 5383 5379 5376 5373 5369 5366 5363 5359 5355 5351 5347 5343 5339 5335 5331 5327 5324 5320 5317 5314 5311 5309 5306 5304 5303 5301 5299 5298 5296 5295 5293 5292 5290 5288 5286 5284 5281 5279 5277 5276 5274 5273 5272
5377 5373 5370 5366 5363 5359 5356 5352 5348 5345 5340 5336 5332 5328 5324 5320 5316 5313 5309 5306 5303 5301 5298 5296 5294 5292 5290 5288 5287 5285 5284 5283 5281 5279 5278 5276 5274 5272 5270 5268 5266 5265 5263 5262
5367 5363 5360 5356 5353 5349 5345 5342 5338 5334 5330 5326 5322 5318 5314 5310 5306 5303 5299 5296 5293 5290 5288 5285 5283 5282 5280 5278 5277 5275 5274 5272 5271 5269 5268 5266 5264 5262 5261 5259 5257 5256 5254 5252
5357 5354 5350 5346 5343 5339 5335 5331 5327 5323 5319 5315 5311 5308 5304 5300 5296 5292 5289 5286 5283 5280 5278 5275 5273 5272 5270 5268 5267 5265 5264 5262 5261 5259 5258 5256 5254 5253 5251 5249 5248 5246 5245 5243
5348 5344 5340 5336 5333 5329 5325 5321 5317 5313 5309 5305 5301 5297 5294 5290 5286 5283 5280 5276 5273 5270 5268 5266 5264 5262 5260 5259 5257 5256 5254 5253 5251 5250 5248 5246 5245 5243 5242 5240 5239 5237 5236 5234
5338 5334 5330 5326 5323 5319 5315 5311 5307 5303 5299 5295 5291 5288 5284 5280 5277 5273 5270 5267 5264 5261 5259 5257 5255 5253 5251 5249 5248 5246 5245 5243 5242 5240 5239 5237 5236 5234 5233 5231 5230 5228 5227 5225
5329 5325 5321 5317 5313 5309 5305 5301 5297 5293 5290 5286 5282 5279 5275 5271 5268 5264 5261 5258 5255 5252 5250 5247 5245 5243 5242 5240 5238 5237 5235 5234 5233 5231 5230 5228 5227 5226 5224 5223 5221 5220 5218 5217
5320 5316 5312 5308 5304 5300 5297 5293 5289 5285 5281 5278 5274 5270 5267 5263 5259 5256 5252 5249 5246 5243 5241 5238 5237 5235 5233 5231 5230 5228 5227 5225 5224 5222 5221 5220 5218 5217 5216 5215 5213 5212 5210 5209
5312 5308 5304 5300 5296 5292 5288 5285 5281 5277 5273 5270 5266 5262 5259 5255 5251 5247 5244 5241 5238 5235 5232 5230 5228 5227 5225 5223 5221 5220 5218 5217 5216 5214 5213 5212 5210 5209 5208 5207 5205 5204 5203 5201
Wind_Speed
29 29 30 31 31 33 34 35 37 36 37 36 37 38 38 39 39 39 39 39 39 39 39 39 40 41 42 43 44 45 46 48 49 50 51 52 53 54 54 55 56 57 58 58
29 30 31 31 31 32 34 35 36 37 35 36 37 38 39 39 40 40 40 40 40 40 40 41 41 41 41 42 43 44 45 46 47 49 50 51 52 53 54 55 56 57 58 58
31 31 32 31 31 32 33 34 36 37 36 36 37 37 38 39 40 40 41 41 40 41 41 41 41 41 42 42 43 43 44 44 45 46 47 48 49 50 51 52 53 55 56 57
33 33 34 32 32 33 34 35 36 37 36 37 38 39 39 39 39 39 40 40 41 41 41 42 42 43 43 43 42 43 43 44 45 46 46 47 47 48 49 50 52 54 55 56
34 36 36 34 34 35 36 35 36 37 37 37 38 38 38 39 40 40 40 40 41 41 41 41 42 42 42 43 43 43 44 45 45 46 46 47 47 48 48 49 50 51 53 54
36 37 37 36 36 37 37 37 36 37 38 38 38 38 38 39 40 40 40 41 41 41 41 41 41 41 42 42 43 43 44 44 45 45 46 46 47 48 49 49 50 50 50 51
37 38 37 37 36 37 37 37 37 37 37 38 39 39 39 40 40 41 41 41 40 40 41 41 41 40 40 41 41 42 43 43 43 44 45 46 47 48 48 49 49 49 49 50
37 38 37 37 36 36 37 38 38 38 38 39 39 39 40 41 41 41 41 41 41 40 40 40 40 41 41 41 41 41 42 42 42 42 43 44 45 47 48 48 48 48 49 48
38 37 37 37 37 37 37 38 38 39 39 39 39 39 40 41 41 40 40 40 40 40 40 40 40 41 41 41 41 41 41 41 41 42 42 43 44 45 46 46 47 47 47 47
38 37 37 37 37 37 38 38 39 39 39 39 39 39 40 40 41 41 41 40 40 40 40 41 41 41 41 41 41 40 40 41 41 42 42 43 43 42 43 44 45 46 46 47
38 37 38 37 38 38 38 38 38 39 39 40 40 40 39 40 40 40 40 40 40 40 40 40 41 41 41 41 40 40 40 41 41 42 42 42 42 43 43 44 44 45 45 46
37 36 37 37 38 38 39 39 39 39 40 40 40 40 40 40 40 40 40 41 41 41 41 40 40 40 40 41 40 40 40 41 41 41 42 42 42 43 43 43 44 44 44 45
36 36 36 37 37 37 38 39 39 40 40 40 41 41 41 41 41 41 41 41 40 40 40 40 40 40 40 39 40 40 41 41 41 42 42 42 42 42 43 42 43 43 43 43
36 36 35 36 36 37 38 39 39 40 40 40 41 41 41 41 41 41 40 40 40 39 39 39 39 39 39 39 39 40 40 41 41 41 41 41 41 42 42 41 41 41 41 42
35 35 35 36 37 37 38 39 40 40 40 40 41 41 41 41 41 40 40 39 39 39 38 38 39 39 39 38 38 38 38 38 38 39 39 39 39 39 39 40 40 40 40 41
35 35 36 37 37 38 38 39 39 39 40 40 41 41 41 41 40 39 38 38 38 38 38 38 38 38 37 36 36 36 36 36 36 36 37 37 37 37 38 38 39 39 39 39
35 35 36 37 38 38 39 39 39 39 39 40 40 40 40 39 39 38 38 37 37 36 36 37 37 36 36 35 34 34 34 34 35 35 35 35 36 36 36 37 37 37 37 38
35 35 36 37 38 38 38 38 39 39 39 40 40 40 39 39 38 38 38 37 37 36 36 35 35 34 34 34 34 33 33 33 33 33 33 33 33 34 34 34 34 35 35 36
35 35 36 37 37 38 38 38 38 39 39 39 39 39 38 38 38 37 36 36 35 34 34 34 34 34 33 33 33 33 32 32 32 32 32 32 32 32 32 32 32 33 33 33
35 35 36 36 37 37 38 38 38 38 39 38 38 37 37 37 37 36 35 34 34 33 33 32 32 32 32 32 31 31 32 32 32 32 32 31 31 31 30 30 30 30 31 31
35 35 35 35 36 36 37 37 37 38 38 38 37 37 36 35 35 35 34 33 33 32 31 31 30 30 30 30 30 30 31 31 31 31 31 30 30 30 30 30 29 29 29 29
35 35 35 35 36 36 37 37 37 38 37 37 37 36 36 35 35 34 33 32 31 30 29 29 29 29 29 29 29 29 30 30 30 30 30 30 30 30 30 29 29 29 28 28
35 35 35 35 36 36 36 37 37 37 37 36 35 35 34 34 33 32 31 31 30 29 29 28 28 29 29 29 29 29 29 29 29 29 29 29 29 29 28 28 28 28 28 28
34 34 35 35 35 35 36 36 36 35 34 33 32 32 32 31 31 31 30 30 29 29 29 29 29 29 29 29 29 28 28 28 28 28 28 28 27 27 27 27 27 27 26 26
33 33 33 34 34 34 33 33 32 32 31 31 31 31 31 30 30 30 30 29 29 28 28 27 27 27 27 27 27 27 27 27 27 27 27 26 26 25 25 25 25 25 25 25
32 32 32 32 32 32 31 31 30 30 30 30 30 30 30 30 30 30 29 28 28 27 26 26 25 25 25 26 26 26 26 25 25 25 25 25 24 24 23 23 24 24 24 24
31 31 30 30 30 30 30 29 29 29 29 29 29 29 29 29 29 29 28 28 27 26 26 25 25 25 24 24 24 24 23 23 23 23 24 24 23 23 23 23 23 23 23 23
Wind_Direction
289 287 284 282 281 280 280 281 281 282 282 281 280 279 278 277 277 277 277 276 275 274 273 272 271 270 270 269 267 266 264 264 263 263 262 262 262 261 261 260 260 260 259 259
287 287 287 285 284 283 283 283 283 283 282 281 280 279 278 277 277 278 278 278 276 275 274 273 273 272 271 270 269 268 266 265 264 264 264 264 263 263 262 261 261 261 260 260
287 287 287 287 287 286 286 285 285 284 283 281 280 280 280 279 279 279 279 279 279 277 276 275 274 273 272 271 270 270 268 267 267 266 265 265 265 264 263 263 262 262 262 262
288 287 288 291 289 288 288 288 287 286 284 282 281 281 281 280 280 280 280 280 279 278 277 276 275 274 273 272 271 270 270 270 269 268 268 267 266 265 265 265 265 264 263 263
288 288 289 290 290 291 290 290 289 287 285 284 283 283 282 282 282 282 282 282 280 279 278 278 276 275 274 273 272 272 272 271 270 270 269 268 267 266 266 267 267 267 265 264
288 289 290 291 291 291 291 290 289 288 286 285 285 284 283 283 283 283 283 283 282 280 279 279 278 276 275 275 274 273 273 272 271 270 270 269 269 268 268 268 268 268 267 266
288 288 290 292 292 291 290 290 289 288 288 287 286 285 285 284 283 283 283 282 281 280 280 279 278 277 277 276 276 275 274 273 272 272 271 270 270 270 269 269 269 268 267 267
288 288 290 292 291 291 290 290 289 288 289 289 287 286 285 285 285 285 284 282 281 281 281 280 279 278 278 277 276 276 275 274 273 273 272 272 272 271 271 270 270 269 267 267
288 289 289 289 289 289 289 289 288 288 289 289 289 287 286 286 286 286 285 283 282 281 281 281 280 280 280 278 277 276 275 275 274 274 274 274 274 273 272 272 270 269 268 267
287 287 286 287 287 288 288 288 288 287 288 289 289 288 288 288 287 286 284 283 282 282 281 281 281 281 281 280 278 277 276 275 275 275 275 275 275 274 274 273 272 271 269 268
288 288 286 286 287 288 288 288 288 288 289 288 288 289 289 289 289 288 285 283 282 282 281 281 282 282 281 281 279 278 277 277 277 277 276 275 275 275 274 274 274 273 271 270
289 288 288 287 287 288 289 289 290 289 289 290 290 289 289 290 289 288 286 284 283 283 282 282 282 282 282 281 280 279 278 278 279 279 278 277 276 276 276 275 275 274 273 271
289 289 289 288 288 288 289 289 290 291 291 291 292 291 290 290 290 289 287 286 284 283 283 283 283 282 282 281 280 280 280 280 280 280 279 279 278 277 276 275 274 274 273 273
289 290 290 289 289 289 290 290 291 291 292 293 293 293 293 292 291 290 288 287 285 284 283 284 283 283 283 282 281 282 282 281 281 280 280 280 279 278 277 275 274 273 273 273
291 291 290 290 290 291 291 292 292 292 292 294 294 294 294 294 293 291 290 289 287 285 284 284 284 284 284 283 282 282 282 281 281 281 282 281 281 280 278 276 275 274 273 272
292 292 291 292 292 292 293 294 294 294 294 294 295 295 295 294 293 292 291 290 288 286 285 284 284 284 284 282 282 282 282 282 282 282 282 282 283 282 279 278 277 275 273 272
293 292 292 292 292 292 293 295 295 295 295 295 296 296 295 294 294 293 292 291 289 288 287 286 285 284 283 282 282 282 283 283 282 282 282 282 283 282 281 279 278 276 275 273
295 294 293 293 293 293 293 294 295 295 295 296 297 297 296 295 294 294 293 291 290 288 288 286 285 284 282 281 281 281 282 282 283 283 283 283 284 283 282 281 279 278 277 276
296 295 294 293 293 293 293 294 295 296 297 298 298 298 297 296 295 295 294 292 290 289 288 287 285 283 282 281 280 280 281 281 282 283 283 284 284 285 284 282 281 280 279 280
296 295 294 293 293 293 294 295 295 296 297 298 299 299 299 298 297 296 295 294 292 290 289 287 285 284 283 282 282 281 281 281 282 282 283 284 284 285 285 284 283 282 281 280
296 295 295 295 294 294 295 295 296 297 297 298 299 300 299 299 299 298 297 295 293 291 289 287 285 284 283 283 283 282 282 282 282 283 284 284 284 284 284 284 283 283 283 283
297 296 296 296 295 296 296 297 298 298 299 299 299 299 299 299 299 299 298 296 294 292 290 288 287 285 284 284 284 284 283 283 283 284 284 284 284 284 284 284 284 284 284 284
299 299 298 298 298 298 299 299 300 300 300 300 300 299 299 300 300 300 298 297 294 291 289 288 287 286 285 285 285 284 284 284 284 284 284 285 285 284 284 284 284 284 284 284
301 301 301 301 301 301 301 301 302 302 302 302 301 301 301 302 301 300 299 297 295 292 290 288 287 287 286 285 285 285 284 284 284 284 284 285 286 285 284 284 284 285 285 284
304 303 303 303 303 303 304 304 304 303 303 303 303 303 303 303 302 301 300 298 296 294 293 290 289 287 287 286 286 285 285 285 285 284 284 285 285 285 284 284 284 284 285 284
306 305 305 305 305 305 305 306 306 305 304 304 304 304 304 303 303 302 301 299 298 296 294 292 290 289 289 289 288 287 287 287 287 286 286 285 285 285 284 284 284 284 285 286
308 308 307 307 308 308 308 308 307 306 306 306 305 305 305 305 305 304 303 301 299 297 296 293 291 291 291 291 290 289 288 288 288 288 288 287 285 285 285 285 285 285 285 286